When you browse on this site, cookies collect data to enhance your experience and personalize the content and advertising you see.
Visit our Privacy Policy to learn more. By continuing to use the site, you agree to this use of cookies and data.
  • In France
  • List of Countries
  • For 7 days
  • Water Temperature
  • Satellite Maps
  • Weather Map
  • Weather Widgets
  • user-avatar
    Login

    Hourly Weather Igls

    Today, 12 December, Wednesday

    Time Temperature Precipitation Wind Pressure Humidity
    00:00 -7°C° 0 mm 1 mps 685 mmHg 89%
    01:00 -7°C° 0 mm 1 mps 685 mmHg 88%
    02:00 -8°C° 0 mm 1 mps 685 mmHg 88%
    03:00 -9°C° 0 mm 2 mps 685 mmHg 88%
    04:00 -9°C° 0 mm 2 mps 685 mmHg 88%
    05:00 -9°C° 0 mm 2 mps 685 mmHg 88%
    06:00 -9°C° 0 mm 2 mps 685 mmHg 89%
    07:00 -10°C° 0 mm 2 mps 685 mmHg 89%
    08:00 -8°C° 0 mm 2 mps 685 mmHg 87%
    09:00 -6°C° 0 mm 1 mps 685 mmHg 85%
    10:00 -3°C° 0 mm 1 mps 686 mmHg 83%
    11:00 -2°C° 0 mm 1 mps 685 mmHg 80%
    12:00 -1°C° 0 mm 1 mps 685 mmHg 77%
    13:00 +1°C° 0 mm 1 mps 685 mmHg 73%
    14:00 -1°C° 0 mm 1 mps 684 mmHg 79%
    15:00 -2°C° 0 mm 1 mps 684 mmHg 84%
    16:00 -3°C° 0 mm 1 mps 684 mmHg 90%
    17:00 -6°C° 0 mm 1 mps 684 mmHg 90%
    18:00 -7°C° 0 mm 1 mps 684 mmHg 90%
    19:00 -8°C° 0 mm 1 mps 684 mmHg 90%
    20:00 -8°C° 0 mm 1 mps 683 mmHg 88%
    21:00 -8°C° 0 mm 1 mps 683 mmHg 86%
    22:00 -8°C° 0 mm 1 mps 683 mmHg 84%
    23:00 -9°C° 0 mm 1 mps 683 mmHg 83%

    Tomorrow, 13 December, Thursday

    Time Temperature Precipitation Wind Pressure Humidity
    00:00 -10°C° 0 mm 2 mps 683 mmHg 81%
    01:00 -10°C° 0 mm 2 mps 683 mmHg 80%
    02:00 -10°C° 0 mm 2 mps 682 mmHg 80%
    03:00 -10°C° 0 mm 2 mps 682 mmHg 80%
    04:00 -10°C° 0 mm 2 mps 682 mmHg 80%
    05:00 -10°C° 0 mm 2 mps 681 mmHg 80%
    06:00 -10°C° 0 mm 2 mps 681 mmHg 81%
    07:00 -12°C° 0 mm 2 mps 681 mmHg 81%
    08:00 -9°C° 0 mm 2 mps 681 mmHg 80%
    09:00 -8°C° 0 mm 2 mps 681 mmHg 79%
    10:00 -6°C° 0 mm 2 mps 681 mmHg 79%
    11:00 -5°C° 0 mm 2 mps 681 mmHg 77%
    12:00 -3°C° 0 mm 2 mps 680 mmHg 75%
    13:00 -2°C° 0 mm 2 mps 680 mmHg 73%
    14:00 -3°C° 0 mm 2 mps 680 mmHg 78%
    15:00 -4°C° 0 mm 2 mps 679 mmHg 82%
    16:00 -4°C° 0 mm 1 mps 679 mmHg 86%
    17:00 -7°C° 0 mm 2 mps 679 mmHg 86%
    18:00 -8°C° 0 mm 2 mps 679 mmHg 86%
    19:00 -9°C° 0 mm 2 mps 679 mmHg 85%
    20:00 -9°C° 0 mm 2 mps 679 mmHg 84%
    21:00 -9°C° 0 mm 2 mps 680 mmHg 82%
    22:00 -9°C° 0 mm 2 mps 680 mmHg 81%
    23:00 -8°C° 0 mm 2 mps 680 mmHg 80%

    Day after tomorrow, 14 December, Friday

    Time Temperature Precipitation Wind Pressure Humidity
    00:00 -8°C° 0 mm 2 mps 680 mmHg 79%
    01:00 -8°C° 0 mm 2 mps 680 mmHg 79%
    02:00 -8°C° 0 mm 2 mps 680 mmHg 79%
    03:00 -8°C° 0 mm 2 mps 680 mmHg 79%
    04:00 -8°C° 0 mm 2 mps 680 mmHg 79%
    05:00 -8°C° 0 mm 2 mps 680 mmHg 79%
    06:00 -8°C° 0 mm 2 mps 680 mmHg 79%
    07:00 -7°C° 0 mm 1 mps 680 mmHg 79%
    08:00 -4°C° 0 mm 1 mps 681 mmHg 78%
    09:00 -3°C° 0 mm 1 mps 681 mmHg 78%
    10:00 -1°C° 0 mm 1 mps 682 mmHg 77%
    11:00 0°C° 0 mm 1 mps 682 mmHg 75%
    12:00 +2°C° 0 mm 1 mps 682 mmHg 72%
    13:00 +3°C° 0 mm 1 mps 682 mmHg 70%
    14:00 0°C° 0 mm 0 mps 681 mmHg 76%
    15:00 -1°C° 0 mm 0 mps 681 mmHg 82%
    16:00 -3°C° 0 mm 0 mps 681 mmHg 89%
    17:00 -4°C° 0 mm 0 mps 682 mmHg 89%
    18:00 -3°C° 0 mm 1 mps 682 mmHg 89%
    19:00 -4°C° 0 mm 1 mps 683 mmHg 90%
    20:00 -4°C° 0 mm 1 mps 683 mmHg 89%
    21:00 -4°C° 0 mm 1 mps 683 mmHg 88%
    22:00 -4°C° 0 mm 1 mps 683 mmHg 87%
    23:00 -4°C° 0 mm 1 mps 683 mmHg 85%

    15 December, Saturday

    Time Temperature Precipitation Wind Pressure Humidity
    00:00 -6°C° 0 mm 1 mps 683 mmHg 84%
    01:00 -6°C° 0 mm 1 mps 683 mmHg 83%
    02:00 -6°C° 0 mm 1 mps 684 mmHg 83%
    03:00 -6°C° 0 mm 1 mps 684 mmHg 83%
    04:00 -7°C° 0 mm 1 mps 684 mmHg 83%
    05:00 -7°C° 0 mm 1 mps 684 mmHg 84%
    06:00 -7°C° 0 mm 1 mps 684 mmHg 86%
    07:00 -7°C° 0 mm 1 mps 685 mmHg 87%
    08:00 -6°C° 0 mm 1 mps 685 mmHg 86%
    09:00 -3°C° 0 mm 1 mps 686 mmHg 85%
    10:00 -2°C° 0 mm 1 mps 686 mmHg 84%
    11:00 -1°C° 0 mm 1 mps 686 mmHg 81%
    12:00 0°C° 0 mm 1 mps 686 mmHg 77%
    13:00 +1°C° 0 mm 1 mps 686 mmHg 73%
    14:00 0°C° 0 mm 1 mps 686 mmHg 77%
    15:00 -2°C° 0 mm 1 mps 685 mmHg 82%
    16:00 -3°C° 0 mm 1 mps 685 mmHg 86%
    17:00 -4°C° 0 mm 1 mps 686 mmHg 81%
    18:00 -6°C° 0 mm 1 mps 686 mmHg 76%
    19:00 -8°C° 0 mm 2 mps 686 mmHg 72%
    20:00 -8°C° 0 mm 2 mps 686 mmHg 66%
    21:00 -8°C° 0 mm 2 mps 686 mmHg 61%
    22:00 -8°C° 0 mm 2 mps 686 mmHg 56%
    23:00 -8°C° 0 mm 2 mps 686 mmHg 53%

    16 December, Sunday

    Time Temperature Precipitation Wind Pressure Humidity
    00:00 -7°C° 0 mm 2 mps 686 mmHg 50%
    01:00 -7°C° 0 mm 2 mps 686 mmHg 47%
    02:00 -6°C° 0 mm 2 mps 685 mmHg 46%
    03:00 -5°C° 0 mm 2 mps 685 mmHg 45%
    04:00 -5°C° 0 mm 2 mps 685 mmHg 44%
    05:00 -3°C° 0.1 mm 2 mps 685 mmHg 49%
    06:00 0°C° 0.1 mm 1 mps 685 mmHg 55%
    07:00 +1°C° 0.1 mm 1 mps 685 mmHg 60%
    08:00 +2°C° 0.8 mm 1 mps 685 mmHg 68%
    09:00 +3°C° 0.8 mm 1 mps 685 mmHg 76%
    10:00 +5°C° 0.8 mm 1 mps 686 mmHg 84%
    11:00 +5°C° 0.3 mm 2 mps 685 mmHg 85%
    12:00 +6°C° 0.3 mm 2 mps 685 mmHg 86%
    13:00 +7°C° 0.3 mm 2 mps 684 mmHg 87%
    14:00 +6°C° 0.3 mm 2 mps 684 mmHg 86%
    15:00 +6°C° 0.3 mm 2 mps 684 mmHg 85%
    16:00 +7°C° 0.3 mm 1 mps 684 mmHg 84%
    17:00 +7°C° 0.5 mm 1 mps 684 mmHg 84%
    18:00 +6°C° 0.5 mm 1 mps 685 mmHg 84%
    19:00 +6°C° 0.5 mm 1 mps 685 mmHg 84%
    20:00 +6°C° 0.4 mm 1 mps 685 mmHg 84%
    21:00 +6°C° 0.4 mm 1 mps 685 mmHg 84%
    22:00 +5°C° 0.4 mm 1 mps 685 mmHg 84%
    23:00 +5°C° 0.2 mm 1 mps 684 mmHg 84%

    17 December, Monday

    Time Temperature Precipitation Wind Pressure Humidity
    00:00 +5°C° 0.2 mm 1 mps 684 mmHg 83%
    01:00 +4°C° 0.2 mm 2 mps 684 mmHg 83%
    02:00 +5°C° 0.3 mm 1 mps 684 mmHg 83%
    03:00 +5°C° 0.3 mm 1 mps 684 mmHg 83%
    04:00 +4°C° 0.3 mm 1 mps 684 mmHg 83%
    05:00 +4°C° 0.6 mm 1 mps 684 mmHg 84%
    06:00 +4°C° 0.6 mm 1 mps 684 mmHg 86%
    07:00 +4°C° 0.6 mm 1 mps 684 mmHg 87%
    08:00 +4°C° 0.4 mm 1 mps 684 mmHg 88%
    09:00 +5°C° 0.4 mm 1 mps 684 mmHg 88%
    10:00 +5°C° 0.4 mm 1 mps 684 mmHg 89%
    11:00 +6°C° 0.5 mm 1 mps 684 mmHg 90%
    12:00 +6°C° 0.5 mm 1 mps 683 mmHg 91%
    13:00 +7°C° 0.5 mm 1 mps 683 mmHg 92%
    14:00 +6°C° 0.3 mm 1 mps 682 mmHg 92%
    15:00 +5°C° 0.3 mm 2 mps 682 mmHg 91%
    16:00 +5°C° 0.3 mm 2 mps 682 mmHg 91%
    17:00 +4°C° 0.8 mm 2 mps 682 mmHg 92%
    18:00 +5°C° 0.8 mm 1 mps 682 mmHg 93%
    19:00 +5°C° 0.8 mm 1 mps 682 mmHg 93%
    20:00 +5°C° 2 mm 1 mps 682 mmHg 94%
    21:00 +5°C° 2 mm 1 mps 683 mmHg 95%
    22:00 +5°C° 2 mm 1 mps 683 mmHg 96%
    23:00 +4°C° 1.1 mm 2 mps 683 mmHg 96%
    Show more